User: anonymous   Login
Location: Unspecified
(0.0000°N, 0.0000°E)
Time: 17:13:57
(UTC+01:00)
Language:

NOAA 12 - Orbit

View from above orbital plane
View from above orbital plane
View from above satellite
View from above satellite

Ground track
Ground track

The orbit data is extracted from the following two-line orbital elements,

1 21263U 91032A   16042.58274011  .00000031  00000-0  31145-4 0  9992
2 21263  98.6083  70.5815 0012577 277.1160  82.8589 14.25799272286679
Epoch (UTC): 11 February 2016 13:59:08
Eccentricity: 0.0012577
inclination: 98.6083°
perigee height: 797 km
apogee height: 815 km
right ascension of ascending node: 70.5815°
argument of perigee: 277.1160°
revolutions per day: 14.25799272
mean anomaly at epoch: 82.8589°
orbit number at epoch: 28667

The dashed part of the orbit path shows where the satellite is in the earth's shadow,  

DLR